Preview of NWS' New Version of Forecast
This preview is not operational and should not be used for support decisions.

Regional Weather Roundup (RWR)

Issued by National Weather Service (NWS)

                            
000
ASUS45 KBOI 220310
RWRID 

IDAHO REGIONAL WEATHER ROUNDUP
NATIONAL WEATHER SERVICE BOISE ID
900 PM MDT SUN JUL 21 2019

NOTE: "FAIR" INDICATES FEW OR NO CLOUDS BELOW 12000 FEET
WITH NO SIGNIFICANT WEATHER AND/OR OBSTRUCTIONS TO VISIBILITY

IDZ012-014-220400-
SOUTHWEST IDAHO

  
CITY           SKY/WX    TMP DP  RH WIND       PRES   REMARKS
BOISE          MOCLDY    89  49  25 NW6       29.89F                  
CALDWELL       MOCLDY    85  54  34 W6        29.88S                  
MOUNTAIN HOME  CLOUDY    89  40  17 SW5       29.90F                  
$$

IDZ016-017-220400-
SOUTHCENTRAL IDAHO

  
CITY           SKY/WX    TMP DP  RH WIND       PRES   REMARKS
BURLEY         CLEAR     77  50  38 NE5       29.99S                  
JEROME         CLEAR     77  55  46 NE8       29.99S                  
TWIN FALLS     CLEAR     73  58  59 SE8       30.00S                  
$$

IDZ019>023-220400-
SOUTHEAST IDAHO

  
CITY           SKY/WX    TMP DP  RH WIND       PRES   REMARKS
IDAHO FALLS    CLEAR     82  48  30 E5        30.10S                  
POCATELLO      PTCLDY    82  48  30 E5        30.06S                  
REXBURG        CLEAR     80  51  36 SE5       30.11S                  
$$

IDZ006-010-011-018-031-032-220400-
CENTRAL IDAHO MOUNTAINS

  
CITY           SKY/WX    TMP DP  RH WIND       PRES   REMARKS
MCCALL         CLEAR     79  44  28 CALM      30.10R                  
HAILEY         CLEAR     68  54  60 CALM      30.13S                  
STANLEY          N/A     69  35  28 S3        30.22R                  
SALMON         CLEAR     77  50  38 S6        30.02S                  
CHALLIS        PTCLDY    82  30  15 W8        30.07R                  
$$

IDZ002-004-006-007-026-220400-
NORTHERN IDAHO

  
CITY           SKY/WX    TMP DP  RH WIND       PRES   REMARKS
LEWISTON       CLEAR     89  32  13 NE5       29.91S                  
LOWELL           N/A     69  50  50 CALM      29.94R                  
COEUR D'ALENE  CLEAR     81  45  28 NE9       30.00F                  
MULLAN PASS    CLEAR     66  38  35 SE3       30.23F                  
$$